Location: Clatteringshaws Loch
(55.0508°N, 4.2860°W)
Time: 10:23:40
(UTC+01:00)

Amateur Radio Satellites - All Passes

Search period start: 25 May 2015 09:53
Search period end: 26 May 2015 09:53
Location: Clatteringshaws Loch, 55.0508°N, 4.2860°W

Satellite Date Start Highest point End Downlink Frequencies (MHz)
Time Altitude Azimuth
NANOSAT C BR1 25 May 09:54:20 09:57:23 19° 56° (ENE) 10:00:30 145.865
CANX-2 25 May 09:56:41 10:00:51 54° 100° (E) 10:04:59 2200.000
PCSat 25 May 09:59:08 10:04:37 74° 46° (NE) 10:10:03 145.827
CINEMA 3 25 May 10:00:17 10:04:42 33° 93° (E) 10:08:57 145.822/145.860
QB50P2 25 May 10:00:21 10:03:38 22° 58° (ENE) 10:07:00 145.880/145.840
Oscar 11 25 May 10:00:28 10:03:33 19° 88° (E) 10:06:44 145.826/435.025
CUTE 1.7 + AOD 2 25 May 10:00:35 10:04:46 54° 100° (E) 10:08:54 437.475
DOVE 4 25 May 10:05:20 10:10:37 65° 101° (ESE) 10:15:38 437.250
DELFI C3 25 May 10:05:42 10:08:08 16° 87° (E) 10:10:40 145.870
TIGRISAT 25 May 10:07:59 10:12:25 43° 66° (ENE) 10:16:49 435.000
POPSAT HIP 1 25 May 10:12:50 10:16:24 26° 61° (ENE) 10:20:03 437.405
YUBILEINY 25 May 10:14:57 10:23:14 43° 298° (WNW) 10:31:27 435.215
AIST 1 25 May 10:16:20 10:18:02 12° 279° (W) 10:19:34
DUCHIFAT 1 25 May 10:16:35 10:20:12 27° 61° (ENE) 10:23:53 145.980
HO-68 25 May 10:17:15 10:24:26 69° 105° (ESE) 10:31:34 435.675
BRITE-PL 25 May 10:17:18 10:22:57 60° 292° (WNW) 10:28:28 437.365/2234.400
UWE-3 25 May 10:22:53 10:26:31 24° 90° (E) 10:30:07 435.000/436.395/437.385
SEEDS 25 May 10:26:46 10:31:00 80° 103° (ESE) 10:35:11 437.485
UNISAT 6 25 May 10:27:10 10:31:48 63° 70° (ENE) 10:36:24 437.425
GOMX 1 25 May 10:31:27 10:36:55 64° 290° (WNW) 10:42:10 467.674
RS-15 25 May 10:34:07 10:44:44 62° 123° (ESE) 10:55:48 29.354- 29.394
FUNcube-1 25 May 10:38:57 10:42:39 26° 91° (E) 10:46:19 145.935
CUTE-I 25 May 10:39:53 10:42:00 12° 318° (NW) 10:43:56 437.470
SO-50 25 May 10:42:03 10:46:44 40° 25° (NNE) 10:51:26 436.795
COMPASS 1 25 May 10:43:39 10:47:51 86° 286° (WNW) 10:52:01 437.405
BUGSAT 1 25 May 10:49:27 10:53:17 37° 65° (ENE) 10:57:14 437.445
QB50P1 25 May 10:56:20 11:00:34 58° 69° (ENE) 11:04:50 145.935-145.965
Cosmos 2504 25 May 10:56:30 11:04:38 66° 95° (E) 11:12:15 435.465 / 435.565
POLYITAN 1 25 May 10:57:03 11:01:18 60° 70° (ENE) 11:05:36 437.675
AAUSAT CUBESAT 2 25 May 10:57:46 11:01:56 73° 287° (WNW) 11:06:03 437.432
AO-7 25 May 11:03:26 11:07:28 15° 359° (N) 11:11:29 29.400- 29.500
CUBEBUG 2 25 May 11:06:48 11:11:24 66° 101° (ESE) 11:15:48 437.445
ANTELSAT 25 May 11:10:30 11:15:10 60° 259° (WSW) 11:19:46 437.575/2403.000
ZACube-1 25 May 11:18:12 11:22:36 57° 100° (E) 11:26:50 437.345
50 SAT 25 May 11:22:42 11:25:36 20° 90° (E) 11:28:32 437.505
UKube-1 25 May 11:24:49 11:28:46 32° 96° (E) 11:32:43 .
NANOSAT C BR1 25 May 11:28:29 11:32:47 76° 256° (WSW) 11:37:07 145.865
DX 1 25 May 11:30:12 11:34:20 38° 97° (E) 11:38:28 434.975-435.025
HUMSAT D 25 May 11:30:27 11:34:24 38° 96° (E) 11:38:18 437.325/437.525
ESTCUBE 1 25 May 11:30:43 11:33:31 16° 86° (E) 11:36:27 437.505/2401.250
CANX-2 25 May 11:33:05 11:36:31 24° 300° (WNW) 11:39:54 2200.000
QB50P2 25 May 11:34:54 11:39:11 65° 258° (WSW) 11:43:29 145.880/145.840
Oscar 11 25 May 11:35:54 11:40:12 66° 289° (WNW) 11:44:29 145.826/435.025
VELOX 1 25 May 11:35:57 11:39:43 26° 92° (E) 11:43:32 145.980
CUTE 1.7 + AOD 2 25 May 11:36:59 11:40:25 24° 300° (WNW) 11:43:48 437.475
CINEMA 3 25 May 11:37:22 11:42:03 45° 294° (WNW) 11:46:30 145.822/145.860
DELFI C3 25 May 11:39:45 11:43:47 74° 288° (WNW) 11:47:47 145.870
CUBEBUG 1 25 May 11:40:58 11:43:55 18° 87° (E) 11:46:59 437.445
PCSat 25 May 11:43:02 11:47:39 28° 246° (WSW) 11:52:10 145.827
DOVE 4 25 May 11:43:31 11:48:00 28° 302° (WNW) 11:52:17 437.250
Oscar 19 25 May 11:43:43 11:46:56 17° 49° (NE) 11:50:16 437.125/150
TIGRISAT 25 May 11:45:01 11:49:17 33° 266° (W) 11:53:28 435.000
POPSAT HIP 1 25 May 11:47:52 11:52:04 51° 260° (W) 11:56:19 437.405
DUCHIFAT 1 25 May 11:51:41 11:55:50 48° 261° (W) 12:00:02 145.980
BRITE-PL 25 May 11:56:55 12:00:29 17° 312° (NW) 12:03:53 437.365/2234.400
UWE-3 25 May 11:58:59 12:03:25 55° 291° (WNW) 12:07:41 435.000/436.395/437.385
SEEDS 25 May 12:03:28 12:06:20 18° 303° (WNW) 12:09:06 437.485
UNISAT 6 25 May 12:05:13 12:08:59 23° 270° (W) 12:12:39 437.425
HO-68 25 May 12:05:22 12:11:52 38° 307° (NW) 12:18:17 435.675
AISAT 25 May 12:06:29 12:10:52 47° 99° (E) 12:15:14 437.250
DANDE 25 May 12:07:34 12:11:26 15° 70° (ENE) 12:15:53 436.750
GOMX 1 25 May 12:10:38 12:14:06 17° 311° (NW) 12:17:24 467.674
FUNcube-1 25 May 12:14:58 12:19:15 49° 292° (WNW) 12:23:24 145.935
YUBILEINY 25 May 12:18:04 12:23:10 16° 328° (NNW) 12:28:00 435.215
Gurwin Techsat 1B 25 May 12:19:28 12:21:41 13° 43° (NE) 12:24:04 435.225
COMPASS 1 25 May 12:20:28 12:22:58 15° 305° (NW) 12:25:23 437.405
SO-50 25 May 12:22:40 12:27:38 71° 227° (SW) 12:32:33 436.795
BUGSAT 1 25 May 12:25:02 12:28:50 32° 265° (W) 12:32:39 437.445
SPROUT 25 May 12:28:21 12:31:02 16° 86° (E) 12:33:49 437.525
QB50P1 25 May 12:33:25 12:36:48 22° 270° (W) 12:40:08 145.935-145.965
POLYITAN 1 25 May 12:34:15 12:37:36 21° 270° (W) 12:40:55 437.675
AAUSAT CUBESAT 2 25 May 12:34:47 12:36:53 14° 307° (NW) 12:38:52 437.432
CUBEBUG 2 25 May 12:44:05 12:47:42 23° 302° (WNW) 12:51:11 437.445
RS-15 25 May 12:46:20 12:57:19 66° 332° (NNW) 13:08:47 29.354- 29.394
GONETS M04 25 May 12:47:28 12:54:35 29° 79° (ENE) 13:01:54
CUSAT 1 25 May 12:49:51 12:56:20 32° 83° (E) 13:03:26 437.405
Cosmos 2504 25 May 12:51:02 12:58:35 38° 298° (WNW) 13:05:37 435.465 / 435.565
AO-7 25 May 12:51:44 12:57:12 20° 27° (NNE) 13:02:51 29.400- 29.500
ANTELSAT 25 May 12:52:11 12:53:00 10° 280° (W) 12:53:33 437.575/2403.000
ZACube-1 25 May 12:55:02 12:58:41 25° 301° (WNW) 13:02:10 437.345
50 SAT 25 May 12:56:48 13:00:39 54° 290° (WNW) 13:04:26 437.505
TISAT 1 25 May 12:59:38 13:03:00 22° 91° (E) 13:06:25 437.305
UKube-1 25 May 13:00:54 13:04:59 39° 295° (WNW) 13:09:03 .
HUMSAT D 25 May 13:06:19 13:10:06 32° 297° (WNW) 13:13:47 437.325/437.525
ESTCUBE 1 25 May 13:06:30 13:11:03 84° 287° (WNW) 13:15:36 437.505/2401.250
DX 1 25 May 13:06:33 13:10:34 34° 297° (WNW) 13:14:32 434.975-435.025
NANOSAT C BR1 25 May 13:07:45 13:09:28 12° 277° (W) 13:10:59 145.865
VELOX 1 25 May 13:12:10 13:16:33 52° 293° (WNW) 13:20:55 145.980
Oscar 11 25 May 13:13:35 13:15:39 13° 309° (NW) 13:17:36 145.826/435.025
QB50P2 25 May 13:15:36 13:16:03 10° 279° (W) 13:16:16 145.880/145.840
DELFI C3 25 May 13:16:19 13:18:15 13° 307° (NW) 13:20:05 145.870
CUBEBUG 1 25 May 13:16:24 13:20:52 77° 288° (WNW) 13:25:20 437.445
CINEMA 3 25 May 13:16:40 13:18:07 11° 315° (NW) 13:19:23 145.822/145.860
Oscar 19 25 May 13:20:20 13:25:30 69° 70° (ENE) 13:30:43 437.125/150
ITAMSAT 1 25 May 13:30:25 13:35:01 34° 60° (ENE) 13:39:42 435.822/435.867
JAS-2 25 May 13:34:03 13:37:01 14° 44° (NE) 13:40:02 435.910
UWE-3 25 May 13:37:18 13:39:02 12° 312° (NW) 13:40:38 435.000/436.395/437.385
AISAT 25 May 13:43:21 13:47:18 30° 299° (WNW) 13:51:12 437.250
DANDE 25 May 13:45:42 13:52:50 52° 92° (E) 14:01:03 436.750
Cosmos 2499 25 May 13:45:44 13:47:56 12° 69° (ENE) 13:50:32 435.465 / 435.565
FUNcube-1 25 May 13:53:37 13:54:37 11° 313° (NW) 13:55:29 145.935
HO-68 25 May 13:54:01 13:57:49 15° 331° (NNW) 14:01:26 435.675
Gurwin Techsat 1B 25 May 13:55:30 14:00:34 47° 65° (ENE) 14:05:41 435.225
SPROUT 25 May 14:03:21 14:07:44 81° 287° (WNW) 14:12:05 437.525
SO-50 25 May 14:04:20 14:07:29 17° 247° (WSW) 14:10:28 436.795
ITUPSAT 1 25 May 14:27:41 14:31:51 29° 93° (E) 14:36:04 437.325
CUSAT 1 25 May 14:30:38 14:38:20 83° 285° (WNW) 14:46:46 437.405
TISAT 1 25 May 14:34:54 14:39:07 56° 291° (WNW) 14:43:19 437.305
BEESAT 25 May 14:36:37 14:41:00 35° 95° (E) 14:45:23 436.000
AO-7 25 May 14:40:27 14:48:10 45° 52° (NE) 14:55:59 29.400- 29.500
GONETS M04 25 May 14:41:40 14:50:33 86° 282° (WNW) 14:59:29
ESTCUBE 1 25 May 14:44:22 14:47:20 17° 306° (NW) 14:50:12 437.505/2401.250
SWISSCUBE 25 May 14:44:42 14:49:16 43° 98° (E) 14:53:50 437.505
VELOX 1 25 May 14:50:37 14:52:14 12° 312° (NW) 14:53:41 145.980
Cosmos 2504 25 May 14:51:20 14:54:46 13° 326° (NNW) 14:57:50 435.465 / 435.565
CUBEBUG 1 25 May 14:53:54 14:56:35 16° 307° (NW) 14:59:10 437.445
RS-15 25 May 15:00:51 15:11:44 53° 4° (N) 15:23:09 29.354- 29.394
Oscar 19 25 May 15:01:08 15:05:23 24° 270° (W) 15:09:34 437.125/150
ITAMSAT 1 25 May 15:09:22 15:14:24 51° 260° (W) 15:19:30 435.822/435.867
HORYU 2 25 May 15:10:43 15:14:56 41° 65° (ENE) 15:19:10 437.375
KKS-1 25 May 15:13:43 15:16:48 18° 88° (E) 15:19:59 437.445
JAS-2 25 May 15:14:59 15:21:09 50° 65° (ENE) 15:26:41 435.910
DANDE 25 May 15:28:44 15:36:11 54° 296° (WNW) 15:44:36 436.750
Cosmos 2499 25 May 15:31:54 15:39:27 49° 91° (E) 15:46:34 435.465 / 435.565
Gurwin Techsat 1B 25 May 15:35:49 15:40:43 36° 265° (W) 15:45:38 435.225
O/OREOS (USA 219) 25 May 15:40:07 15:41:37 12° 99° (E) 15:43:19 437.305
SPROUT 25 May 15:40:34 15:43:13 16° 307° (NW) 15:45:46 437.525
Cubesat XI-IV 25 May 15:52:52 15:53:48 11° 39° (NE) 15:54:55 437.490
ITUPSAT 1 25 May 16:05:22 16:10:00 50° 294° (WNW) 16:14:37 437.325
TISAT 1 25 May 16:12:31 16:14:05 12° 311° (NW) 16:15:31 437.305
BEESAT 25 May 16:14:26 16:18:58 42° 295° (WNW) 16:23:26 436.000
CUSAT 1 25 May 16:15:26 16:22:20 30° 310° (NW) 16:29:25 437.405
YUBILEINY 25 May 16:21:40 16:26:56 17° 35° (NE) 16:32:26 435.215
STARS 25 May 16:22:10 16:26:27 45° 99° (E) 16:30:43 437.465
SWISSCUBE 25 May 16:22:44 16:27:05 35° 298° (WNW) 16:31:24 437.505
MOZHAYETS 4 25 May 16:29:39 16:31:00 11° 81° (E) 16:32:33
AO-7 25 May 16:32:33 16:40:47 65° 255° (WSW) 16:49:06 29.400- 29.500
GONETS M04 25 May 16:41:18 16:48:53 30° 309° (NW) 16:56:20
HORYU 2 25 May 16:47:37 16:51:41 32° 265° (W) 16:55:44 437.375
KKS-1 25 May 16:49:29 16:54:01 75° 289° (WNW) 16:58:29 437.445
JAS-2 25 May 17:00:20 17:06:27 40° 264° (W) 17:11:54 435.910
CUTE-I 25 May 17:08:17 17:12:43 28° 56° (ENE) 17:17:14 437.470
RS-15 25 May 17:14:31 17:25:56 75° 35° (NE) 17:37:55 29.354- 29.394
DANDE 25 May 17:15:41 17:21:39 21° 321° (NW) 17:27:45 436.750
O/OREOS (USA 219) 25 May 17:15:47 17:20:17 69° 118° (ESE) 17:24:46 437.305
HO-68 25 May 17:24:11 17:27:14 13° 25° (NNE) 17:30:27 435.675
Cosmos 2499 25 May 17:25:00 17:32:43 49° 293° (WNW) 17:39:53 435.465 / 435.565
Cubesat XI-IV 25 May 17:27:46 17:32:35 37° 61° (ENE) 17:37:29 437.490
ITUPSAT 1 25 May 17:45:01 17:46:57 12° 314° (NW) 17:48:43 437.325
BEESAT 25 May 17:54:44 17:55:44 10° 316° (NW) 17:56:34 436.000
STARS 25 May 17:58:51 18:02:47 30° 299° (WNW) 18:06:39 437.465
CUSAT 1 25 May 18:04:20 18:08:07 13° 336° (NNW) 18:11:42 437.405
MOZHAYETS 4 25 May 18:04:38 18:09:13 68° 102° (ESE) 18:13:47
YUBILEINY 25 May 18:18:15 18:26:37 48° 64° (ENE) 18:34:59 435.215
BRITE-PL 25 May 18:20:51 18:24:07 17° 48° (NE) 18:27:37 437.365/2234.400
KKS-1 25 May 18:27:17 18:29:59 15° 308° (NW) 18:32:33 437.445
AO-7 25 May 18:30:01 18:35:32 18° 280° (W) 18:40:42 29.400- 29.500
Cosmos 2491 25 May 18:33:07 18:39:11 22° 73° (ENE) 18:45:33 435.465 / 435.565
GOMX 1 25 May 18:33:22 18:36:16 15° 47° (NE) 18:39:21 467.674
BEESAT 3 25 May 18:41:14 18:43:38 15° 115° (ESE) 18:46:09 437.485
GONETS M04 25 May 18:46:26 18:49:45 12° 340° (NNW) 18:52:51
CUTE-I 25 May 18:47:10 18:52:28 67° 257° (WSW) 18:57:49 437.470
Cosmos 2504 25 May 18:48:11 18:50:51 12° 32° (NNE) 18:53:44 435.465 / 435.565
O/OREOS (USA 219) 25 May 18:56:17 19:00:08 26° 320° (NW) 19:03:58 437.305
DANDE 25 May 19:06:21 19:08:41 11° 348° (NNW) 19:10:54 436.750
HO-68 25 May 19:06:51 19:12:58 33° 50° (NE) 19:19:12 435.675
Cubesat XI-IV 25 May 19:07:29 19:12:38 48° 261° (W) 19:17:49 437.490
CANX-2 25 May 19:22:26 19:25:12 17° 56° (NE) 19:28:03 2200.000
Cosmos 2499 25 May 19:23:36 19:28:04 16° 320° (NW) 19:32:10 435.465 / 435.565
BEESAT 2 25 May 19:26:04 19:29:39 29° 122° (ESE) 19:33:18 435.950
CUTE 1.7 + AOD 2 25 May 19:26:17 19:29:03 17° 56° (NE) 19:31:53 437.475
RS-15 25 May 19:27:11 19:38:09 53° 241° (WSW) 19:49:29 29.354- 29.394
CINEMA 3 25 May 19:33:53 19:36:51 16° 51° (NE) 19:39:55 145.822/145.860
CUBESAT XI-V 25 May 19:38:08 19:42:46 56° 100° (E) 19:47:25 437.345
DOVE 4 25 May 19:40:52 19:45:15 28° 58° (ENE) 19:49:47 437.250
MOZHAYETS 4 25 May 19:42:29 19:46:05 23° 302° (WNW) 19:49:36
SEEDS 25 May 19:51:05 19:54:22 23° 60° (ENE) 19:57:41 437.485
UWE-3 25 May 19:54:03 19:55:15 11° 47° (NE) 19:56:38 435.000/436.395/437.385
BRITE-PL 25 May 19:56:29 20:01:39 63° 69° (ENE) 20:07:11 437.365/2234.400
COMPASS 1 25 May 20:07:00 20:10:25 25° 61° (ENE) 20:13:54 437.405
GOMX 1 25 May 20:08:13 20:13:20 56° 68° (ENE) 20:18:43 467.674
FUNcube-1 25 May 20:08:43 20:10:04 11° 48° (NE) 20:11:35 145.935
PRISM 25 May 20:11:35 20:15:40 53° 101° (E) 20:19:44 437.425
STRAND 1 25 May 20:13:09 20:18:11 50° 100° (E) 20:23:12 437.568
YUBILEINY 25 May 20:15:18 20:23:45 56° 269° (W) 20:32:07 435.215
BEESAT 3 25 May 20:16:55 20:21:02 81° 135° (SE) 20:25:11 437.485
AAUSAT CUBESAT 2 25 May 20:20:29 20:24:04 29° 63° (ENE) 20:27:41 437.432
Cosmos 2491 25 May 20:25:56 20:34:41 75° 97° (E) 20:43:33 435.465 / 435.565
CUTE-I 25 May 20:31:03 20:33:42 13° 279° (W) 20:36:08 437.470
CUBEBUG 2 25 May 20:36:11 20:40:01 25° 59° (ENE) 20:43:51 437.445
M-CUBED/EXP-1 PRIME 25 May 20:36:58 20:39:58 29° 103° (ESE) 20:42:55 437.505
O/OREOS (USA 219) 25 May 20:39:51 20:41:09 11° 344° (NNW) 20:42:24 437.305
Cosmos 2504 25 May 20:40:19 20:47:04 38° 61° (ENE) 20:53:42 435.465 / 435.565
AIST 2 25 May 20:41:59 20:46:04 45° 127° (SE) 20:50:12 435.215
ZACube-1 25 May 20:46:03 20:49:25 21° 57° (ENE) 20:52:49 437.345
AUBIESAT-1 25 May 20:46:47 20:49:51 32° 104° (ESE) 20:52:53 437.475
GONETS M04 25 May 20:49:55 20:52:00 11° 14° (NNE) 20:54:16
HO-68 25 May 20:52:57 21:00:10 82° 252° (WSW) 21:07:26 435.675
UKube-1 25 May 20:52:57 20:55:10 14° 51° (NE) 20:57:29 .
DANDE 25 May 20:53:22 20:56:16 12° 16° (NNE) 20:59:17 436.750
HUMSAT D 25 May 20:55:53 20:57:58 14° 52° (NE) 21:00:11 437.325/437.525
CANX-2 25 May 20:56:20 21:00:38 85° 257° (WSW) 21:04:55 2200.000
DX 1 25 May 20:58:34 21:01:14 16° 53° (NE) 21:03:59 434.975-435.025
DELFI C3 25 May 20:59:38 21:02:59 26° 62° (ENE) 21:06:23 145.870
CUTE 1.7 + AOD 2 25 May 21:00:10 21:04:27 85° 255° (WSW) 21:08:44 437.475
Oscar 11 25 May 21:01:47 21:05:46 36° 65° (ENE) 21:09:46 145.826/435.025
BEESAT 2 25 May 21:03:26 21:07:32 59° 323° (NW) 21:11:40 435.950
VELOX 1 25 May 21:07:12 21:08:50 12° 48° (NE) 21:10:36 145.980
CINEMA 3 25 May 21:08:15 21:13:14 67° 71° (ENE) 21:18:17 145.822/145.860
AIST 1 25 May 21:13:37 21:17:36 41° 93° (E) 21:21:41
CUBESAT XI-V 25 May 21:16:01 21:19:59 27° 300° (WNW) 21:23:53 437.345
DOVE 4 25 May 21:17:28 21:22:38 66° 259° (WSW) 21:27:59 437.250
SEEDS 25 May 21:25:40 21:29:52 59° 259° (W) 21:34:04 437.485
UWE-3 25 May 21:26:20 21:30:50 47° 67° (ENE) 21:35:19 435.000/436.395/437.385
BRITE-PL 25 May 21:36:09 21:40:38 28° 272° (W) 21:45:19 437.365/2234.400
AISAT 25 May 21:36:20 21:39:29 19° 55° (NE) 21:42:43 437.250
CUSAT 1 25 May 21:37:11 21:41:38 16° 30° (NNE) 21:45:59 437.405
FUNcube-1 25 May 21:41:04 21:45:29 50° 68° (ENE) 21:49:56 145.935
RS-15 25 May 21:41:46 21:48:01 16° 265° (W) 21:53:37 29.354- 29.394
COMPASS 1 25 May 21:41:48 21:45:54 50° 260° (W) 21:50:00 437.405
GOMX 1 25 May 21:47:07 21:51:47 31° 269° (W) 21:56:36 467.674
PRISM 25 May 21:47:31 21:50:53 24° 300° (WNW) 21:54:12 437.425
STRAND 1 25 May 21:52:39 21:57:16 34° 300° (WNW) 22:01:51 437.568
AAUSAT CUBESAT 2 25 May 21:55:34 21:59:34 42° 262° (W) 22:03:33 437.432
BEESAT 3 25 May 21:55:42 21:59:25 31° 337° (NNW) 22:03:08 437.485
CUBEBUG 2 25 May 22:11:34 22:16:20 67° 258° (WSW) 22:21:06 437.445
M-CUBED/EXP-1 PRIME 25 May 22:11:52 22:14:52 29° 303° (WNW) 22:17:46 437.505
50 SAT 25 May 22:13:53 22:17:28 32° 65° (ENE) 22:21:04 437.505
YUBILEINY 25 May 22:14:03 22:18:43 15° 293° (WNW) 22:22:59 435.215
AIST 2 25 May 22:20:35 22:24:43 44° 328° (NNW) 22:28:52 435.215
ZACube-1 25 May 22:20:42 22:25:19 78° 256° (WSW) 22:29:55 437.345
AUBIESAT-1 25 May 22:21:43 22:24:38 26° 304° (NW) 22:27:26 437.475
Cosmos 2491 25 May 22:24:23 22:32:28 37° 302° (WNW) 22:40:31 435.465 / 435.565
UKube-1 25 May 22:26:17 22:30:36 69° 70° (ENE) 22:34:58 .
HUMSAT D 25 May 22:28:44 22:33:02 69° 72° (ENE) 22:37:20 437.325/437.525
DX 1 25 May 22:32:30 22:36:53 82° 70° (ENE) 22:41:18 434.975-435.025
Cosmos 2504 25 May 22:33:45 22:40:57 60° 266° (W) 22:47:57 435.465 / 435.565
DELFI C3 25 May 22:34:03 22:37:56 45° 261° (W) 22:41:50 145.870
CANX-2 25 May 22:35:10 22:37:18 13° 276° (W) 22:39:17 2200.000
DANDE 25 May 22:36:29 22:43:04 25° 43° (NE) 22:49:12 436.750
ESTCUBE 1 25 May 22:36:51 22:40:54 35° 63° (ENE) 22:45:01 437.505/2401.250
Oscar 11 25 May 22:37:59 22:41:59 35° 265° (W) 22:45:58 145.826/435.025
CUTE 1.7 + AOD 2 25 May 22:38:58 22:41:07 13° 276° (W) 22:43:06 437.475
VELOX 1 25 May 22:40:12 22:44:32 54° 68° (ENE) 22:48:56 145.980
BEESAT 2 25 May 22:42:53 22:46:21 24° 345° (NNW) 22:49:48 435.950
HO-68 25 May 22:43:37 22:49:07 22° 275° (W) 22:54:25 435.675
CUBEBUG 1 25 May 22:43:39 22:47:36 34° 63° (ENE) 22:51:38 437.445
GONETS M04 25 May 22:46:20 22:53:14 25° 46° (NE) 23:00:16
CINEMA 3 25 May 22:46:47 22:50:54 24° 271° (W) 22:54:57 145.822/145.860
AIST 1 25 May 22:51:39 22:55:25 29° 294° (WNW) 22:59:11
ANTELSAT 25 May 22:56:11 22:59:15 18° 87° (E) 23:02:21 437.575/2403.000
DOVE 4 25 May 22:58:56 23:01:32 13° 281° (W) 23:03:56 437.250
UWE-3 25 May 23:03:21 23:07:32 31° 267° (W) 23:11:40 435.000/436.395/437.385
NANOSAT C BR1 25 May 23:08:07 23:09:39 12° 83° (E) 23:11:21 145.865
AISAT 25 May 23:11:05 23:15:35 82° 257° (WSW) 23:20:07 437.250
QB50P2 25 May 23:14:23 23:16:35 14° 85° (E) 23:18:55 145.880/145.840
FUNcube-1 25 May 23:18:05 23:22:04 28° 268° (W) 23:25:59 145.935
CUSAT 1 25 May 23:19:36 23:27:00 39° 57° (ENE) 23:33:17 437.405
POPSAT HIP 1 25 May 23:26:37 23:29:28 17° 87° (E) 23:32:24 437.405
SPROUT 25 May 23:28:59 23:32:46 30° 62° (ENE) 23:36:37 437.525
TIGRISAT 25 May 23:29:14 23:33:17 33° 94° (E) 23:37:15 435.000
DUCHIFAT 1 25 May 23:29:51 23:32:47 18° 88° (E) 23:35:48 145.980
BEESAT 3 25 May 23:35:16 23:38:27 21° 360° (N) 23:41:38 437.485
50 SAT 25 May 23:48:27 23:52:10 34° 264° (W) 23:55:51 437.505
UNISAT 6 25 May 23:48:49 23:53:11 49° 99° (E) 23:57:26 437.425
CUBEBUG 2 25 May 23:52:04 23:54:01 12° 279° (W) 23:55:44 437.445
TISAT 1 25 May 23:58:20 00:02:20 41° 66° (ENE) 00:06:24 437.305
BUGSAT 1 25 May 23:59:54 00:03:24 24° 91° (E) 00:06:57 437.445
ZACube-1 26 May 00:00:10 00:02:30 13° 277° (W) 00:04:40 437.345
O/OREOS (USA 219) 26 May 00:00:33 00:03:56 20° 35° (NE) 00:07:20 437.305
AIST 2 26 May 00:00:43 00:04:12 23° 351° (N) 00:07:39 435.215
UKube-1 26 May 00:04:06 00:07:14 19° 271° (W) 00:10:18 .
ITUPSAT 1 26 May 00:06:02 00:08:53 16° 51° (NE) 00:11:52 437.325
HUMSAT D 26 May 00:06:08 00:09:16 19° 272° (W) 00:12:17 437.325/437.525
QB50P1 26 May 00:10:08 00:14:13 40° 97° (E) 00:18:16 145.935-145.965
DX 1 26 May 00:10:59 00:13:46 16° 273° (W) 00:16:26 434.975-435.025
POLYITAN 1 26 May 00:11:13 00:15:20 41° 97° (E) 00:19:25 437.675
ESTCUBE 1 26 May 00:13:32 00:17:45 39° 263° (W) 00:22:00 437.505/2401.250
BEESAT 26 May 00:14:19 00:17:31 19° 53° (NE) 00:20:50 436.000
VELOX 1 26 May 00:17:44 00:21:25 24° 269° (W) 00:25:04 145.980
DANDE 26 May 00:19:42 00:28:10 67° 69° (ENE) 00:35:16 436.750
CUBEBUG 1 26 May 00:19:51 00:23:57 38° 263° (W) 00:28:05 437.445
SWISSCUBE 26 May 00:22:05 00:25:39 22° 55° (NE) 00:29:19 437.505
BEESAT 2 26 May 00:22:16 00:25:35 22° 9° (N) 00:28:53 435.950
Cosmos 2491 26 May 00:28:18 00:32:50 14° 333° (NNW) 00:37:08 435.465 / 435.565
Cosmos 2504 26 May 00:29:08 00:32:50 14° 289° (WNW) 00:36:10 435.465 / 435.565
ANTELSAT 26 May 00:32:07 00:36:36 72° 289° (WNW) 00:40:56 437.575/2403.000
NANOSAT C BR1 26 May 00:42:00 00:46:20 76° 103° (ESE) 00:50:37 145.865
GONETS M04 26 May 00:43:07 00:51:59 73° 74° (ENE) 01:00:45
QB50P2 26 May 00:48:51 00:53:12 89° 104° (ESE) 00:57:29 145.880/145.840
AISAT 26 May 00:50:38 00:52:58 14° 276° (W) 00:55:09 437.250
PCSat 26 May 00:51:07 00:53:28 13° 105° (ESE) 00:56:02 145.827
POPSAT HIP 1 26 May 01:01:33 01:05:53 74° 288° (WNW) 01:10:09 437.405
CUSAT 1 26 May 01:02:27 01:10:18 65° 263° (W) 01:16:39 437.405
SPROUT 26 May 01:04:37 01:08:46 43° 262° (W) 01:12:56 437.525
DUCHIFAT 1 26 May 01:04:49 01:09:07 70° 289° (WNW) 01:13:21 145.980
TIGRISAT 26 May 01:05:56 01:10:08 39° 295° (WNW) 01:14:11 435.000
BEESAT 3 26 May 01:13:49 01:17:30 30° 23° (NNE) 01:21:11 437.485
Cosmos 2499 26 May 01:13:53 01:19:51 28° 55° (NE) 01:25:51 435.465 / 435.565
UNISAT 6 26 May 01:25:57 01:29:47 28° 300° (WNW) 01:33:29 437.425
Oscar 19 26 May 01:25:58 01:28:38 14° 82° (E) 01:31:30 437.125/150
TISAT 1 26 May 01:34:28 01:38:15 30° 266° (W) 01:42:02 437.305
BUGSAT 1 26 May 01:34:59 01:39:10 51° 292° (WNW) 01:43:19 437.445
O/OREOS (USA 219) 26 May 01:39:34 01:44:05 81° 58° (ENE) 01:48:33 437.305
AIST 2 26 May 01:40:19 01:43:56 26° 15° (NNE) 01:47:32 435.215
ITUPSAT 1 26 May 01:41:20 01:46:05 73° 71° (ENE) 01:50:53 437.325
QB50P1 26 May 01:46:09 01:50:01 32° 297° (WNW) 01:53:49 145.935-145.965
POLYITAN 1 26 May 01:47:19 01:51:10 31° 297° (WNW) 01:54:56 437.675
BEESAT 26 May 01:50:01 01:54:47 86° 72° (ENE) 01:59:35 436.000
STARS 26 May 01:51:18 01:54:20 19° 54° (NE) 01:57:27 437.465
SWISSCUBE 26 May 01:58:18 02:03:04 77° 254° (WSW) 02:07:52 437.505
BEESAT 2 26 May 02:00:33 02:04:33 44° 32° (NNE) 02:08:31 435.950
DANDE 26 May 02:03:26 02:11:01 39° 274° (W) 02:17:24 436.750
ISS 26 May 02:06:06 02:08:53 26° 157° (SSE) 02:11:41 145.825
Gurwin Techsat 1B 26 May 02:07:06 02:07:47 10° 78° (ENE) 02:08:46 435.225
ANTELSAT 26 May 02:10:11 02:12:40 15° 309° (NW) 02:15:01 437.575/2403.000
KKS-1 26 May 02:18:20 02:22:30 39° 64° (ENE) 02:26:44 437.445
NANOSAT C BR1 26 May 02:18:36 02:21:44 19° 304° (WNW) 02:24:45 145.865
QB50P2 26 May 02:25:42 02:28:33 17° 305° (NW) 02:31:18 145.880/145.840
PCSat 26 May 02:30:36 02:35:55 60° 125° (SE) 02:41:18 145.827
Cosmos 2491 26 May 02:34:34 02:35:00 10° 7° (N) 02:35:32 435.465 / 435.565
POPSAT HIP 1 26 May 02:38:42 02:41:06 14° 308° (NW) 02:43:22 437.405
GONETS M04 26 May 02:40:30 02:48:18 36° 278° (W) 02:55:52
DUCHIFAT 1 26 May 02:41:59 02:44:13 14° 308° (NW) 02:46:21 145.980
CUSAT 1 26 May 02:46:36 02:51:27 18° 287° (WNW) 02:55:34 437.405
BEESAT 3 26 May 02:51:45 02:55:54 82° 226° (SW) 02:59:58 437.485
Oscar 19 26 May 03:03:48 03:09:01 74° 103° (ESE) 03:14:11 437.125/150
Cosmos 2499 26 May 03:06:49 03:13:59 82° 261° (W) 03:21:04 435.465 / 435.565
BUGSAT 1 26 May 03:12:35 03:13:46 11° 311° (NW) 03:14:47 437.445
ITAMSAT 1 26 May 03:14:43 03:19:27 34° 95° (E) 03:24:14 435.822/435.867
AIST 2 26 May 03:18:58 03:23:14 62° 38° (NE) 03:27:25 435.215
O/OREOS (USA 219) 26 May 03:19:57 03:22:59 18° 257° (WSW) 03:25:54 437.305
ITUPSAT 1 26 May 03:20:59 03:24:33 20° 272° (W) 03:28:02 437.325
STARS 26 May 03:25:47 03:30:15 86° 254° (WSW) 03:34:46 437.465
BEESAT 26 May 03:30:10 03:33:21 17° 274° (W) 03:36:23 436.000
MOZHAYETS 4 26 May 03:37:29 03:41:13 26° 60° (ENE) 03:45:00
BEESAT 2 26 May 03:38:43 03:42:41 43° 233° (SW) 03:46:34 435.950
SWISSCUBE 26 May 03:39:19 03:41:50 14° 277° (W) 03:44:09 437.505
ISS 26 May 03:41:45 03:44:54 45° 177° (S) 03:48:03 145.825
Gurwin Techsat 1B 26 May 03:43:54 03:49:08 54° 100° (E) 03:54:22 435.225
DANDE 26 May 03:50:56 03:51:58 10° 296° (WNW) 03:52:31 436.750
KKS-1 26 May 03:55:05 03:59:13 35° 264° (W) 04:03:21 437.445
JAS-2 26 May 04:01:50 04:05:24 19° 86° (E) 04:09:05 435.910
PCSat 26 May 04:14:27 04:19:37 43° 327° (NNW) 04:24:49 145.827
SO-50 26 May 04:23:50 04:28:05 34° 122° (ESE) 04:32:31 436.795
AO-7 26 May 04:25:56 04:33:02 30° 90° (E) 04:40:16 29.400- 29.500
Cosmos 2491 26 May 04:30:34 04:36:40 20° 40° (NE) 04:42:59 435.465 / 435.565
BEESAT 3 26 May 04:30:47 04:33:19 16° 245° (WSW) 04:35:41 437.485
HORYU 2 26 May 04:31:15 04:35:10 30° 94° (E) 04:39:05 437.375
Oscar 19 26 May 04:43:45 04:47:58 25° 305° (NW) 04:52:04 437.125/150
ITAMSAT 1 26 May 04:54:08 04:59:10 49° 295° (WNW) 05:04:11 435.822/435.867
AIST 2 26 May 04:57:54 05:01:34 28° 239° (WSW) 05:05:10 435.215
Cosmos 2499 26 May 05:01:08 05:06:06 20° 283° (WNW) 05:10:49 435.465 / 435.565
STARS 26 May 05:04:59 05:07:28 14° 275° (W) 05:09:48 437.465
CUBESAT XI-V 26 May 05:12:35 05:16:07 23° 57° (ENE) 05:19:45 437.345
MOZHAYETS 4 26 May 05:13:38 05:18:10 58° 259° (W) 05:22:42
ISS 26 May 05:18:00 05:20:59 34° 197° (SSW) 05:24:00 145.825
Gurwin Techsat 1B 26 May 05:24:13 05:28:58 33° 301° (WNW) 05:33:40 435.225
PRISM 26 May 05:34:51 05:37:34 18° 56° (NE) 05:40:22 437.425
JAS-2 26 May 05:46:07 05:51:25 82° 288° (WNW) 05:56:37 435.910
M-CUBED/EXP-1 PRIME 26 May 05:57:34 06:00:50 25° 55° (NE) 06:03:57 437.505
STRAND 1 26 May 05:58:10 06:02:32 30° 58° (ENE) 06:06:59 437.568
PCSat 26 May 05:59:57 06:04:21 24° 352° (N) 06:08:45 145.827
SO-50 26 May 06:03:39 06:08:27 64° 324° (NW) 06:13:23 436.795
AUBIESAT-1 26 May 06:06:56 06:10:14 26° 56° (NE) 06:13:25 437.475
HORYU 2 26 May 06:07:43 06:11:59 44° 294° (WNW) 06:16:11 437.375
AO-7 26 May 06:18:29 06:26:54 85° 292° (WNW) 06:35:18 29.400- 29.500
Cosmos 2491 26 May 06:27:19 06:36:02 57° 68° (ENE) 06:44:42 435.465 / 435.565
ITAMSAT 1 26 May 06:35:13 06:37:39 13° 316° (NW) 06:39:56 435.822/435.867
CUBESAT XI-V 26 May 06:48:34 06:53:10 70° 257° (WSW) 06:57:50 437.345
ISS 26 May 06:55:13 06:56:46 13° 215° (SW) 06:58:16 145.825
CUTE-I 26 May 06:57:04 07:01:42 29° 92° (E) 07:06:23 437.470
PRISM 26 May 07:08:28 07:12:33 79° 255° (WSW) 07:16:42 437.425
AIST 1 26 May 07:13:10 07:16:48 25° 64° (ENE) 07:20:31
Cubesat XI-IV 26 May 07:17:05 07:22:09 40° 97° (E) 07:27:13 437.490
YUBILEINY 26 May 07:28:49 07:36:41 40° 85° (E) 07:44:39 435.215
M-CUBED/EXP-1 PRIME 26 May 07:31:30 07:35:32 51° 252° (WSW) 07:39:17 437.505
JAS-2 26 May 07:32:14 07:35:52 19° 311° (NW) 07:39:20 435.910
STRAND 1 26 May 07:36:29 07:41:31 58° 259° (WSW) 07:46:36 437.568
AUBIESAT-1 26 May 07:40:57 07:44:55 46° 253° (WSW) 07:48:35 437.475
PCSat 26 May 07:44:46 07:49:23 27° 17° (NNE) 07:54:02 145.827
SO-50 26 May 07:45:28 07:49:48 30° 347° (NNW) 07:54:11 436.795
HORYU 2 26 May 07:47:19 07:47:38 10° 314° (NW) 07:47:48 437.375
RS-15 26 May 07:54:42 07:59:19 14° 93° (E) 08:04:44 29.354- 29.394
BRITE-PL 26 May 07:55:10 07:58:28 16° 80° (E) 08:01:56 437.365/2234.400
GOMX 1 26 May 08:04:55 08:06:55 12° 77° (ENE) 08:09:09 467.674
AO-7 26 May 08:11:44 08:18:53 33° 317° (NW) 08:25:55 29.400- 29.500
HO-68 26 May 08:14:37 08:17:50 14° 77° (ENE) 08:21:23 435.675
Cosmos 2491 26 May 08:24:31 08:32:52 47° 273° (W) 08:41:04 435.465 / 435.565
CUBESAT XI-V 26 May 08:29:48 08:31:37 12° 279° (W) 08:33:13 437.345
CANX-2 26 May 08:36:42 08:37:46 11° 82° (E) 08:39:02 2200.000
CUTE-I 26 May 08:36:52 08:42:10 59° 293° (WNW) 08:47:26 437.470
CUTE 1.7 + AOD 2 26 May 08:40:29 08:41:30 11° 82° (E) 08:42:43 437.475
PRISM 26 May 08:47:17 08:48:49 12° 276° (W) 08:50:09 437.425
AIST 1 26 May 08:50:30 08:54:45 50° 265° (W) 08:58:59
Cubesat XI-IV 26 May 08:57:16 09:02:20 44° 297° (WNW) 09:07:23 437.490
CINEMA 3 26 May 08:58:53 08:59:51 11° 78° (ENE) 09:01:02 145.822/145.860
TIGRISAT 26 May 09:00:27 09:03:02 15° 52° (NE) 09:05:43 435.000
SEEDS 26 May 09:03:52 09:06:16 15° 86° (E) 09:08:48 437.485
DOVE 4 26 May 09:10:00 09:14:17 26° 88° (E) 09:18:30 437.250
COMPASS 1 26 May 09:18:47 09:21:29 17° 87° (E) 09:24:18 437.405
UNISAT 6 26 May 09:19:22 09:22:44 21° 56° (ENE) 09:26:10 437.425
STRAND 1 26 May 09:20:36 09:21:59 11° 281° (W) 09:23:05 437.568
YUBILEINY 26 May 09:24:29 09:33:12 65° 289° (WNW) 09:41:54 435.215
SO-50 26 May 09:27:14 09:31:34 29° 11° (N) 09:35:56 436.795
PCSat 26 May 09:28:23 09:33:48 62° 41° (NE) 09:39:12 145.827
Cosmos 2504 26 May 09:28:35 09:34:45 25° 80° (E) 09:40:48 435.465 / 435.565
AAUSAT CUBESAT 2 26 May 09:31:44 09:34:44 19° 89° (E) 09:37:48 437.432
BRITE-PL 26 May 09:32:19 09:38:05 72° 102° (ESE) 09:43:39 437.365/2234.400
QB50P1 26 May 09:36:14 09:38:33 15° 53° (NE) 09:41:01 145.935-145.965
POLYITAN 1 26 May 09:37:27 09:39:54 15° 53° (NE) 09:42:28 437.675
GOMX 1 26 May 09:40:54 09:46:21 60° 100° (E) 09:51:34 467.674
